Preview of NWS' New Version of Forecast
This preview is not operational and should not be used for support decisions.

Regional Weather Roundup (RWR)

Issued by National Weather Service (NWS)

                            
000
ASUS46 KSEW 160610
RWRWA 

WASHINGTON REGIONAL WEATHER ROUNDUP
NATIONAL WEATHER SERVICE SEATTLE WA
1100 PM PDT MON JUL 15 2019

NOTE:"FAIR" INDICATES FEW OR NO CLOUDS BELOW 12,000 FEET WITH NO 
SIGNIFICANT WEATHER AND/OR OBSTRUCTIONS TO VISIBILITY.

WAZ507-509-555>559-160700-
SEATTLE, TACOMA, EVERETT, AND VICINITY
  
CITY           SKY/WX    TMP DP  RH WIND       PRES   REMARKS
EVERETT        CLOUDY    61  55  81 N6        30.06F                  
6HR MIN TEMP:  61; 6HR MAX TEMP:  70;                                

BOEING FIELD   CLOUDY    68  57  68 CALM      30.04S                  
6HR MIN TEMP:  68; 6HR MAX TEMP:  71;                                

RENTON         CLOUDY    68  61  78 VRB3      30.04S                  
6HR MIN TEMP:  68; 6HR MAX TEMP:  72;                                

SEATAC AIRPORT MOCLDY    66  57  72 S3        30.05S                  
6HR MIN TEMP:  66; 6HR MAX TEMP:  71;                                

JBLM-MCCHORD   MOCLDY    64  64 100 S5        30.06R                  
6HR MIN TEMP:  64; 6HR MAX TEMP:  71; 6HR PCP: TRACE;                

PUYALLUP       MOCLDY    64  64 100 CALM      30.06S                  
BREMERTON      MOCLDY    60  58  92 CALM      30.05F                  
6HR MIN TEMP:  60; 6HR MAX TEMP:  71;                                

JBLM-FT LEWIS  NOT AVBL                                               
TACOMA NARROWS CLOUDY    64  58  80 SW3       30.06S                  
6HR MIN TEMP:  63; 6HR MAX TEMP:  69;                                

$$
 
WAZ001-503-506-510-514-515-160700-
NORTH INTERIOR
  
CITY           SKY/WX    TMP DP  RH WIND       PRES   REMARKS
BELLINGHAM     CLEAR     66  54  65 S7        30.02F                  
6HR MIN TEMP:  65; 6HR MAX TEMP:  71;                                

FRIDAY HARBOR  MOCLDY    52  51  97 CALM      30.04S                  
6HR MIN TEMP:  51; 6HR MAX TEMP:  66; 6HR PCP: TRACE;                

EASTSOUND      CLEAR     63  55  77 S9        30.01S                  
PORT ANGELES   CLEAR     59  56  89 W7        30.06S                  
6HR MIN TEMP:  59; 6HR MAX TEMP:  67;                                

EDIZ HOOK      FAIR      59  55  85 W7        30.05S                  
6HR MIN TEMP:  59; 6HR MAX TEMP:  64;                                

PORT TOWNSEND  FAIR      57  55  94 CALM      30.04S                  
NAS WHIDBEY    PTCLDY    62  55  77 VRB5      30.08S                  
6HR MIN TEMP:  60; 6HR MAX TEMP:  68;                                

ARLINGTON      PTCLDY    62  55  77 N3        30.05F                  
6HR MIN TEMP:  62; 6HR MAX TEMP:  74;                                

BURLINGTON     CLEAR     57  54  88 S5        30.05S                  
$$
 
WAZ020-022-039-040-504-511-512-160700-
SOUTHWEST INTERIOR
  
CITY           SKY/WX    TMP DP  RH WIND       PRES   REMARKS
SHELTON        CLEAR     61  57  87 W6        30.03S                  
6HR MIN TEMP:  61; 6HR MAX TEMP:  71;                                

OLYMPIA        CLOUDY    63  61  93 S5        30.05S                  
6HR MIN TEMP:  63; 6HR MAX TEMP:  70;                                

CHEHALIS       CLOUDY    63  63 100 CALM      30.06S                  
KELSO          MOCLDY    65  61  87 W5        30.06S                  
6HR MIN TEMP:  65; 6HR MAX TEMP:  70; 6HR PCP: TRACE;                

VANCOUVER      MOCLDY    68  61  78 NW3       30.03S                  
6HR MIN TEMP:  68; 6HR MAX TEMP:  76; 6HR PCP: TRACE;                

SCAPPOOSE, OR  CLOUDY    66  60  81 N5        30.03S                  
6HR MIN TEMP:  66; 6HR MAX TEMP:  77;                                

PORTLAND, OR   CLOUDY    69  60  73 NW8       30.04R                  
6HR MIN TEMP:  69; 6HR MAX TEMP:  77;                                

$$
 
WAZ021-516-517-160700-
WASHINGTON COAST
  
CITY           SKY/WX    TMP DP  RH WIND       PRES   REMARKS
FORKS          MOCLDY    59  57  93 CALM      30.06S                  
6HR MIN TEMP:  59; 6HR MAX TEMP:  70;                                

HOQUIAM        CLOUDY    64  61  90 W6        30.06S                  
6HR MIN TEMP:  64; 6HR MAX TEMP:  71;                                

ASTORIA, OR    CLOUDY    63  60  90 SW5       30.05S                  
$$
 
WAZ019-023-024-040-567>569-160700-
CASCADE MOUNTAINS AND COLUMBIA GORGE
  
CITY           SKY/WX    TMP DP  RH WIND       PRES   REMARKS
STAMPEDE PASS  FOG       52  50  93 VRB6      30.11S VSB 1/4          
6HR MIN TEMP:  52; 6HR MAX TEMP:  54;                                

TROUTDALE, OR  CLOUDY    70  60  70 CALM      30.02S                  
6HR MIN TEMP:  68; 6HR MAX TEMP:  77;                                

HOOD RIVER, OR PTCLDY    68  55  64 NW6       30.02F                  
THE DALLES, OR PTCLDY    70  56  61 W6        29.99S                  
6HR MIN TEMP:  70; 6HR MAX TEMP:  80;                                

$$

WAZ026-027-041>044-520-521-160700-
EAST SLOPES
  
CITY           SKY/WX    TMP DP  RH WIND       PRES   REMARKS
OMAK           CLOUDY    68  51  54 NW7       29.94S                  
6HR MIN TEMP:  66; 6HR MAX TEMP:  80; 6HR PCP: TRACE;                

WENATCHEE      CLEAR     68  48  48 W6        29.95F                  
6HR MIN TEMP:  68; 6HR MAX TEMP:  77; 6HR PCP: TRACE;                

ELLENSBURG     CLEAR     62  51  67 NW12      30.01S                  
6HR MIN TEMP:  62; 6HR MAX TEMP:  75; 6HR PCP: TRACE;                

YAKIMA         CLEAR     67  52  58 NW8       29.99S                  
6HR MIN TEMP:  67; 6HR MAX TEMP:  81; 6HR PCP: TRACE;                

SUNNYSIDE ARPT PTCLDY    67  56  69 W5        29.96S                  
6HR MIN TEMP:  67; 6HR MAX TEMP:  81;                                

YAKIMA TC      FAIR      65  49  55 E6        29.99S                  
6HR MIN TEMP:  65; 6HR MAX TEMP:  81;                                

$$

WAZ028-034-035-160700-
COLUMBIA BASIN
  
CITY           SKY/WX    TMP DP  RH WIND       PRES   REMARKS
EPHRATA        PTCLDY    70  48  45 NW10      29.94S                  
6HR MIN TEMP:  68; 6HR MAX TEMP:  80;                                

MOSES LAKE     PTCLDY    71  54  54 SW7       29.94S                  
6HR MIN TEMP:  71; 6HR MAX TEMP:  81;                                

PASCO          CLEAR     67  54  63 N5        29.94R                  
6HR MIN TEMP:  67; 6HR MAX TEMP:  84;                                

RICHLAND ARPT  CLEAR     72  54  53 N5        29.94                   
6HR MIN TEMP:  72; 6HR MAX TEMP:  85;                                

HERMISTON, OR  PTCLDY    70  51  51 S8        29.95S                  
6HR MIN TEMP:  69; 6HR MAX TEMP:  84;                                

$$

WAZ036>038-160700-
NORTHEAST WASHINGTON
  
CITY           SKY/WX    TMP DP  RH WIND       PRES   REMARKS
SPOKANE GEIGER MOCLDY    64  46  52 CALM      30.00F                  
6HR MIN TEMP:  64; 6HR MAX TEMP:  71;                                

SPOKANE FELTS  PTCLDY    63  53  70 CALM      30.00S                  
6HR MIN TEMP:  63; 6HR MAX TEMP:  73; 6HR PCP: TRACE;                

FAIRCHILD AFB  CLOUDY    62  48  60 CALM      30.01S                  
6HR MIN TEMP:  60; 6HR MAX TEMP:  71; 6HR PCP: TRACE;                

COEURDALENE,ID PTCLDY    61  57  87 NE5       30.02S                  
6HR MIN TEMP:  61; 6HR MAX TEMP:  69; 6HR PCP: TRACE;                

DEER PARK      PTCLDY    56  52  86 CALM      30.01S                  
6HR MIN TEMP:  54; 6HR MAX TEMP:  69;                                

$$

WAZ029>033-160700-
SOUTHEAST WASHINGTON
  
CITY           SKY/WX    TMP DP  RH WIND       PRES   REMARKS
PULLMAN        CLEAR     59  54  83 CALM      30.04F                  
6HR MIN TEMP:  58; 6HR MAX TEMP:  72; 6HR PCP:  0.01;                

LEWISTON, ID   PTCLDY    64  54  69 S6        29.99F                  
6HR MIN TEMP:  64; 6HR MAX TEMP:  83; 6HR PCP:  0.01;                

WALLA WALLA    CLEAR     69  52  54 S7        29.98S                  
6HR MIN TEMP:  68; 6HR MAX TEMP:  78; 6HR PCP: TRACE;                

PENDLETON, OR  MOCLDY    69  47  45 W14       29.98F                  
6HR MIN TEMP:  67; 6HR MAX TEMP:  77; 6HR PCP: TRACE;                

$$